Location: Vancouver
(49.2500°N, 123.1330°W)
Time: 19:00:47
(UTC-07:00)

Iridium 21 - Visible Passes

Search period start: 14 September 2014 00:00
Search period end: 24 September 2014 00:00
Orbit: 776 x 779 km, 86.4° (Epoch: 14 September)

Date Brightness Start Highest point End Pass type
(mag) Time Alt. Az. Time Alt. Az. Time Alt. Az.
14 Sep 5.8 20:10:40 10° SSE 20:15:36 46° E 20:20:34 10° NNE visible
14 Sep 7.6 21:52:10 10° SW 21:56:33 27° WNW 22:00:58 10° NNW visible
15 Sep 6.7 21:17:49 10° SSW 21:22:47 45° W 21:27:47 10° N visible
16 Sep 5.7 20:43:57 10° S 20:49:09 76° W 20:54:23 10° N visible
16 Sep 8.6 22:28:51 10° W 22:30:51 12° WNW 22:32:50 10° NW visible
17 Sep 5.5 20:10:30 10° S 20:15:38 64° E 20:20:48 10° N visible
17 Sep 8.1 21:53:04 10° WSW 21:56:51 20° WNW 22:00:40 10° NNW visible
18 Sep 7.3 21:18:21 10° SW 21:23:00 33° WNW 21:27:42 10° NNW visible
19 Sep 8.8 06:04:04 10° NE 06:06:32 13° ENE 06:09:00 10° E visible
19 Sep 6.3 20:44:12 10° SSW 20:49:17 55° W 20:54:26 10° N visible
20 Sep 5.5 20:10:30 10° S 20:15:42 87° E 20:20:57 10° N visible
20 Sep 8.5 21:54:18 10° WSW 21:57:12 15° WNW 22:00:07 10° NNW visible
21 Sep 5.7 19:37:13 10° SSE 19:42:14 51° E 19:47:17 10° NNE visible
21 Sep 7.9 21:19:04 10° SW 21:23:16 24° WNW 21:27:30 10° NNW visible
22 Sep 8.6 06:03:22 10° NNE 06:06:55 18° ENE 06:10:25 10° ESE visible
22 Sep 7.0 20:44:36 10° SSW 20:49:29 40° WNW 20:54:23 10° N visible
23 Sep 9.1 05:31:45 10° NE 05:32:53 11° ENE 05:34:02 10° ENE visible
23 Sep 5.9 20:10:38 10° SSW 20:15:49 68° W 20:21:02 10° N visible
23 Sep 8.9 21:56:26 10° WNW 21:57:37 11° WNW 21:58:48 10° NW visible
